[[{"header":{"parameterUnit":"m.s-1","parameterCategory":1,"la1":30.2991,"la2":30.254,"lo1":-89.0895,"lo2":-89.0444,"dy":0.0017,"dx":0.0017,"nx":28,"ny":28,"refTime":"2024-04-06T03:00:00:Z","depth":0,"parameterNumber":2,"parameterNumberName":"U-component_of_WINDS"},"data":[0,0,0,0,0,0,0,0,0,0,0,0,0,0,0,0,0,0,0,0,0,0,0,0,0,0,0,0,0,0,0,0,0,0,0,0,0,0,0,0,0,0,0,0,0,0,0,0,0,0,0,0,0,0,0,0,0,0,-3.1716,-3.1717,0,-3.1824,-3.1825,-3.1826,-3.1848,-3.1847,-3.1846,-3.1845,-3.1958,-3.1961,-3.1965,0,0,0,0,0,0,0,0,0,0,0,0,0,-3.1532,-3.1535,-3.1716,-3.1717,-3.1718,-3.1823,-3.1825,-3.1826,-3.1848,-3.1847,-3.1846,-3.1845,-3.1956,-3.1961,-3.1965,0,0,0,0,0,0,0,0,0,0,0,0,0,-3.1623,-3.1536,-3.1715,-3.1742,-3.1745,-3.1823,-3.1825,-3.1827,-3.1848,-3.1847,-3.1845,-3.1844,-3.1955,-3.196,-3.1966,-3.2026,0,0,-3.1983,-3.1986,0,0,0,0,0,0,0,0,-3.1617,-3.1629,-3.1736,-3.174,-3.1744,-3.1821,-3.1801,-3.1894,-3.1848,-3.1809,-3.1845,-3.1844,-3.1913,-3.1922,-3.1945,-3.2031,-3.2036,-3.1984,-3.1987,-3.199,-3.1991,0,0,0,0,0,0,0,-3.1611,-3.1625,-3.1758,-3.1738,-3.1743,-3.1749,-3.1761,-3.1819,-3.1867,-3.1812,-3.1814,-3.1826,-3.1915,-3.194,-3.1948,-3.2038,-3.1984,-3.1989,-3.1992,-3.1994,-3.218,-3.2182,0,0,0,0,0,0,-3.16,-3.1619,-3.1755,-3.1762,-3.1676,-3.1753,-3.1766,-3.1797,-3.1866,-3.1876,-3.1827,-3.1827,-3.1931,-3.1942,-3.1952,-3.2027,-3.199,-3.1995,-3.1998,-3.2179,-3.218,-3.2182,0,0,0,0,0,0,-3.1596,-3.1612,-3.1751,-3.1691,-3.1709,-3.1758,-3.1793,-3.18,-3.1825,-3.1878,-3.1887,-3.1844,-3.193,-3.1944,-3.2008,-3.2031,-3.1998,-3.2003,-3.2177,-3.2179,-3.2181,-3.2177,0,0,0,0,0,0,-3.159,-3.161,-3.1632,-3.1691,-3.1712,-3.1803,-3.1794,-3.1803,-3.1834,-3.1835,-3.1895,-3.1904,-3.193,-3.1999,-3.2013,-3.2038,-3.2007,-3.2175,-3.2178,-3.218,-3.2175,-3.2179,-3.2182,0,0,0,0,0,-3.1584,-3.1627,-3.1633,-3.165,-3.1741,-3.1804,-3.1817,-3.1845,-3.1836,-3.186,-3.1894,-3.1902,-3.2027,-3.2005,-3.2022,-3.2049,-3.2173,-3.2177,-3.218,-3.2174,-3.2178,-3.2182,0,0,0,0,0,0,-3.157,-3.1635,-3.1643,-3.1707,-3.175,-3.1808,-3.1838,-3.1849,-3.1896,-3.1894,-3.1929,-3.1943,-3.2004,-3.2033,-3.2008,-3.2111,-3.21,-3.2107,-3.2089,-3.2094,-3.2097,-3.2088,-3.2012,0,0,0,0,0,-3.1575,-3.1619,-3.1675,-3.1726,-3.1747,-3.1789,-3.1818,-3.1836,-3.1882,-3.1901,-3.194,-3.1985,-3.2035,-3.2066,-3.2115,-3.2181,-3.2194,-3.2208,-3.2211,-3.2213,-3.2218,-3.2256,-3.2262,-3.2193,-3.2193,-3.2193,0,0,-3.1584,-3.1625,-3.1652,-3.1724,-3.176,-3.1806,-3.1804,-3.1853,-3.1888,-3.1909,-3.197,-3.2001,-3.2054,-3.2119,-3.2149,-3.2145,-3.2241,-3.2218,-3.2219,-3.2223,-3.226,-3.2267,-3.2272,-3.2196,-3.2195,-3.2195,0,0,-3.1625,-3.1661,-3.1707,-3.1743,-3.1797,-3.1825,-3.1836,-3.1893,-3.1914,-3.1976,-3.1993,-3.2036,-3.212,-3.2158,-3.2188,-3.2245,-3.2254,-3.226,-3.2277,-3.2313,-3.2318,-3.2323,-3.2343,-3.235,-3.2265,-3.2265,-3.2265,0,-3.163,-3.1699,-3.173,-3.1778,-3.181,-3.1831,-3.1878,-3.1912,-3.1979,-3.2001,-3.1996,-3.2103,-3.214,-3.2214,-3.2228,-3.2252,-3.2266,-3.2252,-3.2315,-3.232,-3.2326,-3.2345,-3.2352,-3.2265,-3.2265,-3.2265,-3.2265,0,-3.1703,-3.1752,-3.1783,-3.1846,-3.1882,-3.193,-3.1969,-3.2001,-3.2018,-3.2047,-3.2111,-3.2157,-3.2215,-3.2235,-3.2251,-3.2311,-3.2307,-3.2308,-3.2297,-3.2332,-3.2351,-3.2358,-3.2266,-3.2266,-3.2266,-3.2266,0,0,-3.1736,-3.1817,-3.1828,-3.1857,-3.1919,-3.1957,-3.2008,-3.2064,-3.2091,-3.2138,-3.2181,-3.2253,-3.2254,-3.2288,-3.231,-3.2342,-3.2384,-3.2339,-3.2341,-3.2345,-3.2453,-3.2451,-3.2459,-3.2391,-3.2393,-3.2394,-3.2448,0,-3.1783,-3.1871,-3.1901,-3.1974,-3.202,-3.2041,-3.2085,-3.2128,-3.2157,-3.2201,-3.2234,-3.2284,-3.2282,-3.2303,-3.2336,-3.2371,-3.2406,-3.2368,-3.2432,-3.2434,-3.2416,-3.2469,-3.2466,-3.2515,-3.2456,-3.2457,-3.2458,0,-3.185,-3.1896,-3.1974,-3.2031,-3.2051,-3.2089,-3.2144,-3.2186,-3.2236,-3.2255,-3.2294,-3.2313,-3.2368,-3.2355,-3.243,-3.2404,-3.2433,-3.2454,-3.2457,-3.2463,-3.2447,-3.2475,-3.2532,-3.2538,-3.247,-3.2469,-3.2469,0,-3.1865,-3.1948,-3.2005,-3.203,-3.2098,-3.2124,-3.2154,-3.2203,-3.2235,-3.2284,-3.2306,-3.236,-3.239,-3.2432,-3.2466,-3.2454,-3.2539,-3.2529,-3.2556,-3.2556,-3.2572,-3.257,-3.2632,-3.2592,-3.2592,-3.2592,-3.2592,0,-3.1914,-3.196,-3.2012,-3.2047,-3.2101,-3.2135,-3.2188,-3.2219,-3.2263,-3.2305,-3.2328,-3.2368,-3.2411,-3.2456,-3.2484,-3.2542,-3.2556,-3.2573,-3.258,-3.257,-3.2568,-3.2588,-3.2585,-3.2594,-3.2594,-3.2593,-3.2593,0,-3.1939,-3.1976,-3.2039,-3.2099,-3.2115,-3.2151,-3.2203,-3.2238,-3.2269,-3.2323,-3.2337,-3.2386,-3.2441,-3.248,-3.2551,-3.2569,-3.2632,-3.2639,-3.2614,-3.2617,-3.2642,-3.2639,-3.2718,-3.2731,-3.2683,-3.2684,-3.2684,0,-3.1967,-3.2003,-3.2066,-3.2096,-3.2125,-3.2173,-3.2206,-3.2243,-3.2276,-3.2337,-3.2366,-3.2422,-3.2469,-3.2556,-3.2598,-3.2653,-3.2661,-3.2685,-3.2669,-3.2659,-3.266,-3.2657,-3.2661,-3.2687,-3.2687,-3.2688,-3.2688,0,-3.2012,-3.2029,-3.2075,-3.2128,-3.2167,-3.2211,-3.2255,-3.2279,-3.2323,-3.236,-3.2416,-3.2453,-3.2526,-3.2582,-3.2641,-3.2673,-3.2688,-3.2693,-3.2702,-3.2692,-3.2676,-3.2684,-3.2619,-3.269,-3.269,-3.269,-3.269,-3.269,-3.2039,-3.2072,-3.2122,-3.2173,-3.221,-3.2251,-3.2288,-3.2323,-3.237,-3.2431,-3.2451,-3.2509,-3.256,-3.2641,-3.2674,-3.2721,-3.272,-3.2733,-3.2736,-3.2739,-3.2738,-3.267,-3.2732,-3.2732,-3.2732,-3.2732,-3.2732,0,-3.2085,-3.2118,-3.2165,-3.2226,-3.2267,-3.2277,-3.2327,-3.2361,-3.2411,-3.2457,-3.2503,-3.2568,-3.2623,-3.267,-3.2727,-3.2756,-3.2765,-3.277,-3.2767,-3.2775,-3.2736,-3.2722,-3.2762,-3.2762,-3.2762,-3.2762,-3.2762,-3.2762,-3.2114,-3.217,-3.2193,-3.2269,-3.2303,-3.2359,-3.2387,-3.2425,-3.2462,-3.2533,-3.2578,-3.2609,-3.2656,-3.2717,-3.2768,-3.2781,-3.28,-3.2804,-3.2818,-3.2781,-3.2777,-3.2774,-3.2761,-3.2808,-3.2808,-3.2852,-3.2853,-3.2853]},{"header":{"parameterUnit":"m.s-1","parameterCategory":1,"la1":30.2991,"la2":30.254,"lo1":-89.0895,"lo2":-89.0444,"dy":0.0017,"dx":0.0017,"nx":28,"ny":28,"refTime":"2024-04-06T03:00:00:Z","depth":0,"parameterNumber":3,"parameterNumberName":"V-component_of_WINDS"},"data":[0,0,0,0,0,0,0,0,0,0,0,0,0,0,0,0,0,0,0,0,0,0,0,0,0,0,0,0,0,0,0,0,0,0,0,0,0,0,0,0,0,0,0,0,0,0,0,0,0,0,0,0,0,0,0,0,0,0,4.9775,4.9775,0,4.9804,4.9805,4.9805,4.9825,4.9825,4.9825,4.9825,4.9853,4.9853,4.9854,0,0,0,0,0,0,0,0,0,0,0,0,0,4.9732,4.9733,4.9775,4.9775,4.9776,4.9804,4.9805,4.9805,4.9825,4.9825,4.9825,4.9825,4.9853,4.9853,4.9854,0,0,0,0,0,0,0,0,0,0,0,0,0,4.9755,4.9733,4.9775,4.9789,4.9791,4.9804,4.9805,4.9805,4.9825,4.9825,4.9825,4.9826,4.9852,4.9853,4.9854,4.9855,0,0,4.9857,4.9857,0,0,0,0,0,0,0,0,4.9754,4.9757,4.9787,4.9788,4.979,4.9811,4.98,4.9822,4.9825,4.9812,4.9825,4.9826,4.9839,4.9841,4.9846,4.9856,4.9858,4.9857,4.9857,4.9858,4.9858,0,0,0,0,0,0,0,4.9752,4.9756,4.9786,4.9787,4.9789,4.9793,4.9796,4.9804,4.9823,4.9813,4.9814,4.9818,4.984,4.9845,4.9846,4.9858,4.9857,4.9858,4.9858,4.9859,4.987,4.9869,0,0,0,0,0,0,4.9749,4.9754,4.9786,4.9787,4.9772,4.9793,4.9797,4.9804,4.9823,4.9827,4.9818,4.9819,4.9843,4.9845,4.9847,4.9849,4.9858,4.9859,4.9859,4.987,4.987,4.9869,0,0,0,0,0,0,4.9748,4.9752,4.9784,4.9771,4.9776,4.9794,4.9801,4.9805,4.981,4.9827,4.983,4.982,4.9843,4.9846,4.9853,4.9851,4.9859,4.986,4.987,4.987,4.987,4.9853,0,0,0,0,0,0,4.9747,4.9751,4.9753,4.9771,4.9776,4.979,4.9801,4.9805,4.9812,4.9813,4.983,4.9833,4.9844,4.9852,4.9854,4.9852,4.9861,4.9871,4.987,4.987,4.9854,4.9853,4.9851,0,0,0,0,0,4.9745,4.9747,4.9753,4.9756,4.9779,4.979,4.9793,4.9807,4.9811,4.9812,4.9823,4.9832,4.985,4.9852,4.9855,4.9853,4.9871,4.987,4.987,4.9855,4.9853,4.9851,0,0,0,0,0,0,4.9727,4.9749,4.9756,4.9764,4.9775,4.9794,4.9796,4.9804,4.9814,4.9815,4.983,4.9834,4.9839,4.9846,4.9848,4.9854,4.9862,4.9862,4.9849,4.9848,4.9846,4.9844,4.9861,0,0,0,0,0,4.9724,4.9732,4.9751,4.9756,4.9761,4.9777,4.9783,4.9792,4.9804,4.9809,4.982,4.983,4.9838,4.9843,4.9852,4.9855,4.9859,4.9855,4.9854,4.9852,4.9852,4.9854,4.9852,4.9868,4.9868,4.9868,0,0,4.9717,4.9731,4.9735,4.9753,4.9762,4.977,4.9781,4.9789,4.9794,4.9809,4.9817,4.9825,4.9838,4.9843,4.9845,4.9849,4.9848,4.9852,4.985,4.9851,4.9853,4.9852,4.985,4.9867,4.9867,4.9867,0,0,4.971,4.9721,4.9726,4.9735,4.975,4.976,4.9761,4.9779,4.9785,4.9793,4.9804,4.981,4.9824,4.9832,4.9838,4.9831,4.984,4.9834,4.9825,4.9827,4.9826,4.9825,4.9822,4.9821,4.9833,4.9833,4.9833,0,4.97,4.9712,4.9727,4.9734,4.9741,4.9755,4.976,4.9768,4.9784,4.9788,4.9792,4.9809,4.9819,4.9825,4.9824,4.9828,4.9829,4.9832,4.9825,4.9824,4.9823,4.9821,4.982,4.9832,4.9833,4.9833,4.9833,0,4.9699,4.9707,4.9709,4.9725,4.9732,4.9738,4.9752,4.9757,4.9765,4.9775,4.9782,4.9793,4.9804,4.9806,4.9814,4.9814,4.9816,4.9822,4.9829,4.9821,4.9819,4.9818,4.9831,4.9832,4.9832,4.9832,0,0,4.9682,4.9705,4.9706,4.9713,4.9729,4.9735,4.9741,4.9752,4.9755,4.9765,4.977,4.978,4.9786,4.9793,4.9802,4.9803,4.9796,4.9809,4.981,4.9806,4.9796,4.9791,4.9789,4.9802,4.9802,4.9801,4.9794,0,4.9676,4.9688,4.9701,4.9708,4.9715,4.9728,4.9733,4.9743,4.9751,4.9758,4.9767,4.9774,4.9782,4.9785,4.9787,4.9797,4.9794,4.9797,4.9805,4.9805,4.9802,4.9789,4.9784,4.9777,4.9794,4.9794,4.9794,0,4.9672,4.9682,4.969,4.9705,4.9708,4.9712,4.9723,4.9729,4.974,4.9746,4.9753,4.9762,4.9767,4.9774,4.978,4.9782,4.9786,4.9791,4.9791,4.9792,4.9799,4.9789,4.9775,4.9774,4.9793,4.9793,4.9793,0,4.9659,4.9674,4.968,4.9686,4.9703,4.9706,4.9713,4.9724,4.973,4.9738,4.9742,4.975,4.9755,4.9761,4.9772,4.9776,4.9777,4.9785,4.9782,4.9782,4.9782,4.9782,4.9768,4.9784,4.9784,4.9784,4.9784,0,4.9652,4.9656,4.9674,4.9678,4.9683,4.9696,4.97,4.9708,4.9718,4.9723,4.9734,4.9738,4.9752,4.9758,4.9766,4.977,4.9772,4.9776,4.9779,4.9776,4.9775,4.9778,4.9779,4.9784,4.9784,4.9784,4.9784,0,4.9638,4.965,4.9658,4.9674,4.9678,4.968,4.9693,4.9697,4.9706,4.9711,4.9714,4.9727,4.9734,4.9745,4.9755,4.9761,4.9763,4.9767,4.976,4.9761,4.9758,4.9758,4.9745,4.9744,4.9761,4.9761,4.9761,0,4.9633,4.9636,4.9652,4.9656,4.9663,4.967,4.9676,4.9689,4.9694,4.9705,4.9707,4.9715,4.9722,4.9732,4.9742,4.975,4.9754,4.9749,4.9755,4.9751,4.9753,4.9753,4.9753,4.9747,4.9747,4.9747,4.9747,0,4.9622,4.9628,4.9636,4.9645,4.9652,4.966,4.9668,4.9671,4.9685,4.969,4.9698,4.9703,4.9713,4.972,4.9729,4.9735,4.9743,4.9745,4.9744,4.9741,4.9737,4.9739,4.9756,4.9745,4.9745,4.9745,4.9745,4.9746,4.9612,4.9616,4.9627,4.9635,4.9643,4.965,4.9654,4.9663,4.967,4.968,4.9686,4.9693,4.9702,4.9715,4.9721,4.9725,4.9729,4.9729,4.9729,4.9728,4.9727,4.9736,4.9727,4.9727,4.9727,4.9727,4.9727,0,4.9602,4.961,4.9617,4.9629,4.9635,4.9642,4.9651,4.9655,4.9661,4.967,4.9676,4.9684,4.9691,4.9701,4.9708,4.971,4.9714,4.9712,4.9712,4.9713,4.9723,4.9723,4.9708,4.9708,4.9708,4.9708,4.9708,4.9708,4.9598,4.9604,4.961,4.9619,4.9627,4.9634,4.9639,4.9645,4.9652,4.966,4.9666,4.9673,4.9681,4.9689,4.9695,4.9698,4.97,4.9697,4.9701,4.971,4.9712,4.9714,4.9713,4.9697,4.9697,4.969,4.969,4.969]}]]